This is the latest recevied weather packets stored in our database for station/object K4AVM-13. If no packets are shown the sender has not sent any weather packets the latest 10 day(s).
| Time | Temp. | Humidity | Pressure | Rain* | Wind** | Luminosity | Snow |
|---|---|---|---|---|---|---|---|
| 1778029720 | 23.33° C | 51% | 1013.9 hPa | 0 mm | - | 0 W/m² | - |
| 1778029419 | 23.33° C | 50% | 1013.9 hPa | 0 mm | - | 0 W/m² | - |
| 1778029115 | 23.33° C | 49% | 1013.9 hPa | 0 mm | - | 0 W/m² | - |
| 1778028812 | 23.89° C | 49% | 1013.7 hPa | 0 mm | - | 0 W/m² | - |
| 1778028508 | 23.89° C | 48% | 1013.8 hPa | 0 mm | - | 0 W/m² | - |
| 1778028206 | 23.89° C | 48% | 1013.6 hPa | 0 mm | - | 0 W/m² | - |
| 1778027902 | 23.89° C | 47% | 1013.5 hPa | 0 mm | - | 0 W/m² | - |
| 1778027598 | 23.89° C | 47% | 1013.6 hPa | 0 mm | - | 0 W/m² | - |
| 1778027295 | 24.44° C | 47% | 1013.5 hPa | 0 mm | - | 0 W/m² | - |
| 1778026991 | 24.44° C | 46% | 1013.6 hPa | 0 mm | - | 0 W/m² | - |
| 1778026686 | 24.44° C | 46% | 1013.3 hPa | 0 mm | - | 0 W/m² | - |
| 1778026384 | 24.44° C | 46% | 1013.3 hPa | 0 mm | - | 1 W/m² | - |
| 1778026081 | 24.44° C | 46% | 1013.3 hPa | 0 mm | - | 2 W/m² | - |
| 1778025779 | 24.44° C | 45% | 1013.4 hPa | 0 mm | - | 3 W/m² | - |
| 1778025475 | 24.44° C | 45% | 1013.4 hPa | 0 mm | - | 4 W/m² | - |
| 1778025173 | 25° C | 44% | 1013.3 hPa | 0 mm | - | 6 W/m² | - |
| 1778024870 | 25° C | 44% | 1013.4 hPa | 0 mm | - | 10 W/m² | - |
| 1778024567 | 25° C | 44% | 1013.3 hPa | 0 mm | - | 15 W/m² | - |
| 1778024264 | 25° C | 44% | 1013.1 hPa | 0 mm | - | 17 W/m² | - |
| 1778023962 | 25° C | 44% | 1013.3 hPa | 0 mm | - | 17 W/m² | - |
| 1778023658 | 25° C | 44% | 1013.4 hPa | 0 mm | - | 19 W/m² | - |
| 1778023356 | 25° C | 44% | 1013.2 hPa | 0 mm | - | 21 W/m² | - |
| 1778023052 | 25° C | 44% | 1013.2 hPa | 0 mm | - | 24 W/m² | - |
| 1778022752 | 25.56° C | 44% | 1013.3 hPa | 0 mm | - | 27 W/m² | - |
| 1778022450 | 25.56° C | 43% | 1013.1 hPa | 0 mm | - | 30 W/m² | - |
* Rain latest hour (hover to see other rain measurements)
** Current wind speed in m/s (hover to see current wind gust speed)